User: anonymous
Location: Melbourne
(37.8170°S, 144.9670°E)
Time: 09:29:36
(UTC+10:00)
Language:

Cosmos 962 Rocket - Orbit

View from above orbital plane
View from above orbital plane
View from above satellite
View from above satellite

Ground track
Ground track

The orbit data is extracted from the following two-line orbital elements,

1 10461U 77107B   14108.50599700  .00000134  00000-0  12065-3 0  5590
2 10461 082.9477 151.3154 0034599 140.6973 329.0806 13.76683629831754
Epoch (UTC): 18 April 2014 12:08:38
Eccentricity: 0.0034599
inclination: 82.9477°
perigee height: 950 km
apogee height: 1001 km
right ascension of ascending node: 151.3154°
argument of perigee: 140.6973°
revolutions per day: 13.76683629
mean anomaly at epoch: 329.0806°
orbit number at epoch: 83175

The dashed part of the orbit path shows where the satellite is in the earth's shadow,  

DLR